Location: Dąbrówka
(52.2799°N, 15.8070°E)
Time: 18:35:38
(UTC+02:00)

N. Korean satellite - Visible Passes

Search period start: 16 October 2019 00:00
Search period end: 26 October 2019 00:00
Orbit: 455 x 508 km, 97.2° (Epoch: 15 October)

Date Brightness Start Highest point End Pass type
(mag) Time Alt. Az. Time Alt. Az. Time Alt. Az.
16 Oct 10.2 19:11:02 10° WSW 19:12:43 13° W 19:14:23 10° WNW visible
17 Oct 8.6 06:29:31 10° NNE 06:32:49 34° E 06:36:08 10° SSE visible
17 Oct 9.4 18:44:22 10° SSW 18:47:11 23° W 18:50:01 10° NW visible
18 Oct 9.7 06:04:43 10° NE 06:07:21 19° E 06:10:01 10° SE visible
19 Oct 10.5 05:40:54 10° ENE 05:41:49 11° E 05:42:44 10° ESE visible
20 Oct 7.5 06:46:51 10° NNE 06:50:23 53° E 06:53:58 10° S visible
20 Oct 10.0 19:02:40 10° SW 19:04:49 16° W 19:06:59 10° NW visible
21 Oct 9.0 06:21:47 10° NNE 06:24:59 29° E 06:28:12 10° SSE visible
21 Oct 9.0 18:36:18 10° SSW 18:39:18 28° W 18:42:22 10° NW visible
22 Oct 10.0 05:57:07 10° NE 05:59:29 16° E 06:01:52 10° SE visible
23 Oct 10.5 19:21:56 10° W 19:22:29 10° W 19:23:00 10° WNW visible
24 Oct 8.0 06:39:02 10° NNE 06:42:33 44° E 06:46:04 10° S visible
24 Oct 9.7 18:54:22 10° SW 18:56:53 19° W 18:59:26 10° NW visible
25 Oct 9.3 06:14:03 10° NE 06:17:06 24° E 06:20:10 10° SSE visible
25 Oct 8.5 18:28:13 10° SSW 18:31:23 34° W 18:34:38 10° NNW visible
